Weather History for Pompano Beach, FL

Change the Weather History Date:

Sunday, January 27, 2013

  Actual Average Record
Temperature  
Mean Temperature 21 °C -  
Max Temperature 26 °C 24 °C 31 °C (1984)
Min Temperature 17 °C 13 °C 3 °C (1978)
Cooling Degree Days 6    
Growing Degree Days 20 (Base 50)    
Moisture  
Dew Point 16 °C    
Average Humidity 69    
Maximum Humidity 93    
Minimum Humidity 54    
Precipitation  
Precipitation 0.00 mm - - ()
Sea Level Pressure  
Sea Level Pressure 1024 hPa    
Wind  
Wind Speed 13 km/h (ENE)    
Max Wind Speed 24 km/h    
Max Gust Speed -    
Visibility 16 kilometers    
Events      
Averages and records for this station are not official NWS values.
T = Trace of Precipitation, MM = Missing Value Source: NWS Daily Summary

Daily Weather History Graph

Daily Weather History Graph

Search for Another Location

Airport:

Trip Planner

Search our weather history database for the weather conditions in past years. The results will help you decide how hot, cold, wet, or windy it might be!

Date:

Astronomy

Jan. 27, 2013 Rise Set
Actual Time 7:06 AM EST 5:59 PM EST
Civil Twilight 6:42 AM EST 6:24 PM EST
Nautical Twilight 6:14 AM EST 6:52 PM EST
Astronomical Twilight 5:47 AM EST 7:19 PM EST
Moon 6:42 PM EST (1/27) 7:06 AM EST (1/27)
Length of Visible Light 11h 41m
Length of Day
10h 53m
Full, 100% of the Moon is Illuminated
Jan 27
Full
Feb 3
Last Quarter
Feb 10
New
Feb 17
First Quarter
Feb 25
Full

Hourly Weather History & Observations

Time (EST) Temp. Dew Point Humidity Pressure Visibility Wind Dir Wind Speed Gust Speed Precip Events Conditions
12:53 AM 21.1 °C 16.1 °C 73% 1023.3 hPa 16.1 km East 11.1 km/h / 3.1 m/s - N/A   Mostly Cloudy
1:53 AM 21.7 °C 16.1 °C 70% 1023.2 hPa 16.1 km East 11.1 km/h / 3.1 m/s - N/A   Scattered Clouds
2:53 AM 21.1 °C 16.1 °C 73% 1023.1 hPa 16.1 km East 7.4 km/h / 2.1 m/s - N/A   Partly Cloudy
3:53 AM 21.7 °C 16.7 °C 73% 1023.0 hPa 16.1 km East 9.3 km/h / 2.6 m/s - N/A   Overcast
4:53 AM 20.6 °C 16.1 °C 75% 1022.9 hPa 16.1 km Calm Calm - N/A   Clear
5:53 AM 17.2 °C 16.1 °C 93% 1023.3 hPa 16.1 km NNW 7.4 km/h / 2.1 m/s - N/A   Partly Cloudy
6:53 AM 17.2 °C 16.1 °C 93% 1023.8 hPa 16.1 km North 7.4 km/h / 2.1 m/s - N/A   Mostly Cloudy
7:53 AM 17.2 °C 16.1 °C 93% 1024.5 hPa 16.1 km Calm Calm - N/A   Mostly Cloudy
8:53 AM 21.1 °C 16.7 °C 76% 1025.0 hPa 16.1 km NNE 7.4 km/h / 2.1 m/s - N/A   Scattered Clouds
9:53 AM 24.4 °C 16.1 °C 60% 1025.5 hPa 16.1 km ENE 16.7 km/h / 4.6 m/s - N/A   Clear
10:53 AM 24.4 °C 15.6 °C 58% 1025.7 hPa 16.1 km ENE 18.5 km/h / 5.1 m/s - N/A   Partly Cloudy
11:53 AM 25.0 °C 15.6 °C 56% 1025.4 hPa 16.1 km ENE 24.1 km/h / 6.7 m/s - N/A   Scattered Clouds
12:53 PM 25.6 °C 15.6 °C 54% 1024.6 hPa 16.1 km ENE 22.2 km/h / 6.2 m/s - N/A   Scattered Clouds
1:53 PM 25.0 °C 15.0 °C 54% 1024.2 hPa 16.1 km ENE 20.4 km/h / 5.7 m/s - N/A   Scattered Clouds
2:53 PM 25.0 °C 15.0 °C 54% 1023.7 hPa 16.1 km East 18.5 km/h / 5.1 m/s - N/A   Clear
3:53 PM 24.4 °C 14.4 °C 54% 1023.8 hPa 16.1 km ENE 18.5 km/h / 5.1 m/s - N/A   Clear
4:53 PM 23.9 °C 14.4 °C 55% 1024.1 hPa 16.1 km ENE 16.7 km/h / 4.6 m/s - N/A   Clear
5:53 PM 22.8 °C 14.4 °C 59% 1024.7 hPa 16.1 km ENE 13.0 km/h / 3.6 m/s - N/A   Partly Cloudy
6:53 PM 22.2 °C 16.1 °C 68% 1024.8 hPa 16.1 km ENE 18.5 km/h / 5.1 m/s - N/A   Partly Cloudy
7:53 PM 22.2 °C 16.7 °C 71% 1025.2 hPa 16.1 km ENE 18.5 km/h / 5.1 m/s - N/A   Partly Cloudy
8:53 PM 22.8 °C 16.7 °C 68% 1025.6 hPa 16.1 km East 18.5 km/h / 5.1 m/s - N/A   Mostly Cloudy
9:53 PM 22.2 °C 17.2 °C 73% 1025.7 hPa 16.1 km East 20.4 km/h / 5.7 m/s - N/A   Partly Cloudy
10:53 PM 22.8 °C 17.2 °C 71% 1025.7 hPa 16.1 km East 18.5 km/h / 5.1 m/s - N/A   Scattered Clouds
11:53 PM 22.2 °C 17.2 °C 73% 1025.1 hPa 11.3 km East 22.2 km/h / 6.2 m/s - N/A   Scattered Clouds